Location: Valdosta
(30.8330°N, 83.2790°W)
Time: 20:49:25
(UTC-04:00)

Amateur Radio Satellites - All Passes

Search period start: 19 April 2015 20:19
Search period end: 20 April 2015 20:19
Location: Valdosta, 30.8330°N, 83.2790°W

Satellite Date Start Highest point End Downlink Frequencies (MHz)
Time Altitude Azimuth
PRISM 19 Apr 20:22:00 20:26:07 75° 282° (WNW) 20:30:10 437.425
AUBIESAT-1 19 Apr 20:25:42 20:29:28 30° 292° (WNW) 20:32:55 437.475
CANX-2 19 Apr 20:28:27 20:29:49 12° 70° (ENE) 20:31:26 2200.000
BRITE-PL 19 Apr 20:32:41 20:36:06 26° 74° (ENE) 20:39:36 437.365/2234.400
HO-68 19 Apr 20:37:42 20:43:44 32° 67° (ENE) 20:49:58 435.675
CUTE 1.7 + AOD 2 19 Apr 20:37:54 20:39:59 14° 70° (ENE) 20:42:17 437.475
PHONESAT 2.4 19 Apr 20:39:09 20:42:44 87° 152° (SSE) 20:46:20 2401.200-2431.200
STRAND 1 19 Apr 20:43:18 20:48:23 72° 284° (WNW) 20:53:27 437.568
GOMX 1 19 Apr 20:54:47 20:58:19 29° 73° (ENE) 21:01:58 467.674
AAUSAT CUBESAT 2 19 Apr 21:04:03 21:06:31 16° 71° (ENE) 21:09:10 437.432
Cosmos 2499 19 Apr 21:17:12 21:25:11 36° 285° (WNW) 21:33:01 435.465 / 435.565
VERMONT LUNAR 19 Apr 21:19:02 21:21:46 22° 345° (NNW) 21:24:29 437.305
Oscar 11 19 Apr 21:21:04 21:22:12 11° 69° (ENE) 21:23:36 145.826/435.025
PCSat 19 Apr 21:40:57 21:44:33 18° 254° (WSW) 21:47:55 145.827
COMPASS 1 19 Apr 21:49:18 21:53:30 71° 77° (ENE) 21:57:44 437.405
UWE-3 19 Apr 21:49:59 21:52:30 16° 70° (ENE) 21:55:16 435.000/436.395/437.385
CINEMA 3 19 Apr 21:59:57 22:04:01 55° 76° (ENE) 22:08:15 145.822/145.860
CANX-2 19 Apr 22:01:17 22:05:23 45° 261° (W) 22:09:31 2200.000
DOVE 4 19 Apr 22:03:19 22:07:23 57° 260° (W) 22:11:33 437.250
SEEDS 19 Apr 22:04:11 22:08:23 58° 260° (W) 22:12:35 437.485
ISS 19 Apr 22:04:57 22:07:51 30° 40° (NE) 22:10:46 145.825
CUTE 1.7 + AOD 2 19 Apr 22:11:37 22:15:37 37° 262° (W) 22:19:36 437.475
BRITE-PL 19 Apr 22:11:57 22:14:44 17° 266° (W) 22:17:21 437.365/2234.400
FUNcube-1 19 Apr 22:16:39 22:20:08 26° 73° (ENE) 22:23:45 145.935
PHONESAT 2.4 19 Apr 22:18:20 22:21:18 24° 346° (NNW) 22:24:16 2401.200-2431.200
HO-68 19 Apr 22:24:38 22:31:19 40° 261° (W) 22:37:57 435.675
UKube-1 19 Apr 22:33:14 22:36:45 26° 72° (ENE) 22:40:22 .
GOMX 1 19 Apr 22:34:06 22:36:37 15° 267° (W) 22:38:57 467.674
AISAT 19 Apr 22:37:45 22:39:43 13° 69° (ENE) 22:41:56 437.250
AAUSAT CUBESAT 2 19 Apr 22:38:08 22:41:55 31° 263° (W) 22:45:40 437.432
ZACube-1 19 Apr 22:38:35 22:42:40 50° 75° (ENE) 22:46:52 437.345
50 SAT 19 Apr 22:39:07 22:40:37 12° 70° (ENE) 22:42:19 437.505
CUBEBUG 2 19 Apr 22:44:06 22:48:19 84° 258° (WSW) 22:52:41 437.445
RS-15 19 Apr 22:49:35 22:53:15 12° 25° (NNE) 22:57:39 29.354- 29.394
Oscar 11 19 Apr 22:53:48 22:58:00 49° 261° (W) 23:02:14 145.826/435.025
ESTCUBE 1 19 Apr 22:55:06 22:55:17 10° 68° (ENE) 22:55:48 437.505/2401.250
DELFI C3 19 Apr 22:56:29 23:00:31 59° 260° (W) 23:04:34 145.870
VERMONT LUNAR 19 Apr 22:57:55 23:00:04 16° 2° (N) 23:02:12 437.305
DX 1 19 Apr 23:15:45 23:20:05 85° 257° (WSW) 23:24:26 434.975-435.025
Cosmos 2491 19 Apr 23:19:56 23:27:09 32° 87° (E) 23:34:38 435.465 / 435.565
UWE-3 19 Apr 23:25:01 23:28:49 31° 263° (W) 23:32:40 435.000/436.395/437.385
HUMSAT D 19 Apr 23:27:50 23:31:59 86° 256° (WSW) 23:36:14 437.325/437.525
TIGRISAT 19 Apr 23:31:59 23:36:08 31° 96° (E) 23:40:18 435.000
UNISAT 6 19 Apr 23:33:07 23:37:21 33° 97° (E) 23:41:35 437.425
SO-50 19 Apr 23:33:15 23:38:14 87° 64° (ENE) 23:43:06 436.795
YUBILEINY 19 Apr 23:39:02 23:47:47 71° 83° (E) 23:56:27 435.215
O/OREOS (USA 219) 19 Apr 23:40:18 23:44:24 33° 104° (ESE) 23:48:32 437.305
ISS 19 Apr 23:41:56 23:44:03 16° 233° (SW) 23:46:04 145.825
POLYITAN 1 19 Apr 23:45:20 23:48:25 20° 95° (E) 23:51:37 437.675
FUNcube-1 19 Apr 23:53:23 23:56:29 19° 267° (W) 23:59:30 145.935
DUCHIFAT 1 19 Apr 23:54:25 23:57:51 24° 96° (E) 00:01:22 145.980
VELOX 1 19 Apr 23:56:25 00:00:48 68° 259° (WSW) 00:05:11 145.980
PHONESAT 2.4 19 Apr 23:57:54 00:00:20 17° 3° (N) 00:02:47 2401.200-2431.200
QB50P1 20 Apr 00:07:07 00:11:03 36° 98° (E) 00:15:01 145.935-145.965
UKube-1 20 Apr 00:09:39 00:12:53 20° 265° (W) 00:16:00 .
50 SAT 20 Apr 00:11:30 00:15:09 36° 262° (W) 00:18:51 437.505
AISAT 20 Apr 00:11:50 00:16:00 41° 261° (W) 00:20:10 437.250
ANTELSAT 20 Apr 00:14:30 00:19:15 79° 281° (WNW) 00:23:55 437.575/2403.000
BUGSAT 1 20 Apr 00:18:45 00:22:26 32° 98° (E) 00:26:13 437.445
CUBEBUG 1 20 Apr 00:21:22 00:25:44 79° 258° (WSW) 00:30:04 437.445
ESTCUBE 1 20 Apr 00:27:16 00:31:44 59° 260° (W) 00:36:12 437.505/2401.250
TISAT 1 20 Apr 00:27:59 00:31:01 20° 72° (ENE) 00:34:11 437.305
QB50P2 20 Apr 00:30:28 00:34:46 75° 101° (ESE) 00:39:03 145.880/145.840
SPROUT 20 Apr 00:32:29 00:36:10 30° 74° (ENE) 00:39:56 437.525
VERMONT LUNAR 20 Apr 00:35:16 00:38:16 29° 19° (NNE) 00:41:14 437.305
Cosmos 2504 20 Apr 00:45:10 00:47:55 12° 64° (ENE) 00:51:17 435.465 / 435.565
NANOSAT C BR1 20 Apr 00:53:25 00:57:37 57° 284° (WNW) 01:01:48 145.865
POPSAT HIP 1 20 Apr 00:53:32 00:57:45 56° 284° (WNW) 01:01:56 437.405
RS-15 20 Apr 00:58:50 01:09:49 47° 54° (NE) 01:21:23 29.354- 29.394
TIGRISAT 20 Apr 01:09:11 01:12:41 20° 289° (WNW) 01:16:02 435.000
UNISAT 6 20 Apr 01:10:31 01:13:54 19° 289° (WNW) 01:17:07 437.425
BEESAT 20 Apr 01:14:37 01:15:31 11° 67° (ENE) 01:16:44 436.000
SWISSCUBE 20 Apr 01:15:07 01:16:51 12° 68° (ENE) 01:18:53 437.505
Cosmos 2491 20 Apr 01:15:33 01:23:47 44° 283° (WNW) 01:31:59 435.465 / 435.565
POLYITAN 1 20 Apr 01:20:42 01:24:20 26° 287° (WNW) 01:27:51 437.675
O/OREOS (USA 219) 20 Apr 01:20:45 01:23:56 18° 298° (WNW) 01:26:57 437.305
DUCHIFAT 1 20 Apr 01:30:18 01:33:34 21° 288° (WNW) 01:36:43 145.980
PHONESAT 2.4 20 Apr 01:36:03 01:39:17 31° 19° (NNE) 01:42:30 2401.200-2431.200
YUBILEINY 20 Apr 01:38:10 01:43:53 18° 276° (W) 01:49:01 435.215
AIST 1 20 Apr 01:44:03 01:47:52 31° 92° (E) 01:51:43
QB50P1 20 Apr 01:44:13 01:46:40 15° 290° (WNW) 01:48:54 145.935-145.965
BUGSAT 1 20 Apr 01:55:18 01:57:42 15° 289° (WNW) 01:59:57 437.445
TISAT 1 20 Apr 02:03:18 02:06:42 23° 264° (W) 02:10:02 437.305
SPROUT 20 Apr 02:09:32 02:12:20 16° 267° (W) 02:14:58 437.525
VERMONT LUNAR 20 Apr 02:12:39 02:15:53 47° 213° (SSW) 02:19:05 437.305
ITUPSAT 1 20 Apr 02:13:11 02:17:49 50° 75° (ENE) 02:22:29 437.325
Oscar 19 20 Apr 02:21:39 02:26:12 31° 97° (E) 02:30:49 437.125/150
Cosmos 2504 20 Apr 02:34:39 02:42:47 89° 265° (W) 02:50:18 435.465 / 435.565
ITAMSAT 1 20 Apr 02:43:38 02:45:54 13° 92° (E) 02:48:31 435.822/435.867
JUGNU 20 Apr 02:44:52 02:46:36 11° 162° (SSE) 02:48:29 437.505
BEESAT 20 Apr 02:48:10 02:52:55 63° 260° (W) 02:57:39 436.000
SWISSCUBE 20 Apr 02:49:37 02:54:18 55° 259° (W) 02:59:01 437.505
KKS-1 20 Apr 02:53:03 02:56:21 22° 72° (ENE) 02:59:47 437.445
RS-15 20 Apr 03:11:22 03:22:19 45° 250° (WSW) 03:33:24 29.354- 29.394
PHONESAT 2.4 20 Apr 03:14:12 03:17:38 46° 214° (SSW) 03:21:00 2401.200-2431.200
AIST 1 20 Apr 03:23:03 03:25:39 15° 286° (WNW) 03:28:02
ITUPSAT 1 20 Apr 03:53:56 03:56:03 12° 268° (W) 03:57:51 437.325
BEESAT 2 20 Apr 03:59:38 04:02:04 16° 110° (ESE) 04:04:42 435.950
Oscar 19 20 Apr 04:01:15 04:05:25 24° 290° (WNW) 04:09:27 437.125/150
STARS 20 Apr 04:02:10 04:06:32 89° 257° (WSW) 04:10:56 437.465
GONETS M04 20 Apr 04:02:11 04:08:04 20° 69° (ENE) 04:14:26
BEESAT 3 20 Apr 04:05:46 04:08:59 24° 112° (ESE) 04:12:19 437.485
Gurwin Techsat 1B 20 Apr 04:12:35 04:17:55 78° 284° (WNW) 04:23:12 435.225
JAS-2 20 Apr 04:13:52 04:15:52 12° 86° (E) 04:18:18 435.910
ITAMSAT 1 20 Apr 04:20:45 04:25:48 53° 285° (WNW) 04:30:48 435.822/435.867
KKS-1 20 Apr 04:29:12 04:32:53 25° 264° (W) 04:36:30 437.445
SRMSAT 20 Apr 04:30:02 04:32:06 12° 162° (SSE) 04:34:16 437.500
JUGNU 20 Apr 04:30:39 04:35:05 22° 170° (S) 04:39:32 437.505
Cosmos 2504 20 Apr 04:32:41 04:35:05 11° 279° (W) 04:36:42 435.465 / 435.565
HORYU 2 20 Apr 05:08:05 05:12:36 83° 100° (E) 05:17:05 437.375
AO-7 20 Apr 05:29:12 05:37:28 67° 104° (ESE) 05:45:45 29.400- 29.500
AUBIESAT-1 20 Apr 05:35:31 05:37:12 12° 63° (ENE) 05:39:10 437.475
BEESAT 2 20 Apr 05:36:16 05:39:58 31° 303° (WNW) 05:43:41 435.950
BEESAT 3 20 Apr 05:43:42 05:46:57 22° 305° (NW) 05:50:09 437.485
DANDE 20 Apr 05:44:14 05:51:09 50° 79° (E) 05:59:19 436.750
MOZHAYETS 4 20 Apr 05:45:18 05:49:56 72° 259° (W) 05:54:35
CUSAT 1 20 Apr 05:46:33 05:53:52 65° 81° (E) 06:02:10 437.405
JAS-2 20 Apr 05:55:28 06:01:57 70° 285° (WNW) 06:07:38 435.910
AIST 2 20 Apr 05:56:57 06:01:10 65° 299° (WNW) 06:05:25 435.215
GONETS M04 20 Apr 05:56:59 06:05:47 69° 267° (W) 06:14:29
SRMSAT 20 Apr 06:16:13 06:20:43 23° 170° (S) 06:25:15 437.500
JUGNU 20 Apr 06:18:40 06:23:36 28° 179° (S) 06:28:31 437.505
M-CUBED/EXP-1 PRIME 20 Apr 06:18:49 06:23:10 42° 69° (ENE) 06:27:44 437.505
Cubesat XI-IV 20 Apr 06:33:38 06:35:18 12° 91° (E) 06:37:21 437.490
CUBESAT XI-V 20 Apr 07:04:05 07:08:38 55° 76° (ENE) 07:13:12 437.345
PRISM 20 Apr 07:06:54 07:10:44 36° 74° (ENE) 07:14:35 437.425
AUBIESAT-1 20 Apr 07:06:55 07:11:28 62° 256° (WSW) 07:16:14 437.475
Cosmos 2499 20 Apr 07:15:10 07:22:57 65° 81° (E) 07:30:11 435.465 / 435.565
AO-7 20 Apr 07:23:27 07:29:42 23° 298° (WNW) 07:35:36 29.400- 29.500
DANDE 20 Apr 07:28:04 07:34:20 29° 268° (W) 07:41:06 436.750
CUSAT 1 20 Apr 07:30:42 07:36:24 22° 270° (W) 07:42:06 437.405
STRAND 1 20 Apr 07:53:33 07:58:41 88° 254° (WSW) 08:03:50 437.568
M-CUBED/EXP-1 PRIME 20 Apr 07:55:17 07:58:14 16° 264° (W) 08:01:02 437.505
CUTE-I 20 Apr 08:02:52 08:08:11 76° 284° (WNW) 08:13:29 437.470
SRMSAT 20 Apr 08:04:25 08:09:23 28° 180° (S) 08:14:23 437.500
JUGNU 20 Apr 08:07:34 08:12:07 23° 189° (S) 08:16:37 437.505
Cubesat XI-IV 20 Apr 08:10:38 08:15:52 62° 286° (WNW) 08:21:07 437.490
BRITE-PL 20 Apr 08:42:12 08:45:19 17° 94° (E) 08:48:49 437.365/2234.400
PRISM 20 Apr 08:44:16 08:46:22 13° 267° (W) 08:48:14 437.425
CUBESAT XI-V 20 Apr 08:45:39 08:46:28 10° 270° (W) 08:46:55 437.345
PCSat 20 Apr 08:52:31 08:54:31 12° 105° (ESE) 08:56:54 145.827
GOMX 1 20 Apr 09:01:38 09:04:52 17° 93° (E) 09:08:26 467.674
Cosmos 2499 20 Apr 09:10:30 09:15:21 17° 276° (W) 09:19:34 435.465 / 435.565
COMPASS 1 20 Apr 09:39:32 09:42:16 17° 93° (E) 09:45:08 437.405
CANX-2 20 Apr 09:52:04 09:56:10 45° 98° (E) 10:00:16 2200.000
SRMSAT 20 Apr 09:53:29 09:58:04 23° 190° (S) 10:02:38 437.500
SEEDS 20 Apr 09:54:20 09:58:12 34° 97° (E) 10:02:04 437.485
O/OREOS (USA 219) 20 Apr 09:55:53 09:59:38 26° 65° (ENE) 10:03:24 437.305
HO-68 20 Apr 09:57:45 10:04:45 55° 101° (E) 10:11:45 435.675
JUGNU 20 Apr 09:58:06 10:00:34 13° 197° (SSW) 10:02:53 437.505
CINEMA 3 20 Apr 10:00:20 10:04:15 24° 95° (E) 10:08:19 145.822/145.860
CUTE 1.7 + AOD 2 20 Apr 10:02:06 10:06:18 54° 100° (E) 10:10:28 437.475
DOVE 4 20 Apr 10:06:44 10:11:43 58° 100° (E) 10:16:55 437.250
BRITE-PL 20 Apr 10:19:13 10:23:58 44° 285° (WNW) 10:29:01 437.365/2234.400
AAUSAT CUBESAT 2 20 Apr 10:26:13 10:30:22 59° 100° (E) 10:34:29 437.432
TIGRISAT 20 Apr 10:27:04 10:29:18 14° 69° (ENE) 10:31:46 435.000
UNISAT 6 20 Apr 10:28:15 10:30:43 15° 70° (ENE) 10:33:26 437.425
PCSat 20 Apr 10:32:08 10:37:29 63° 297° (WNW) 10:42:52 145.827
ZACube-1 20 Apr 10:33:47 10:36:36 16° 93° (E) 10:39:36 437.345
GOMX 1 20 Apr 10:38:20 10:43:07 43° 285° (WNW) 10:48:07 467.674
CUBEBUG 2 20 Apr 10:40:42 10:44:59 33° 97° (E) 10:49:17 437.445
YUBILEINY 20 Apr 10:41:29 10:45:19 14° 83° (E) 10:49:54 435.215
DELFI C3 20 Apr 10:41:58 10:45:22 26° 96° (E) 10:48:49 145.870
Oscar 11 20 Apr 10:46:36 10:50:45 44° 99° (E) 10:54:54 145.826/435.025
QB50P1 20 Apr 10:56:21 10:58:24 14° 70° (ENE) 11:00:40 145.935-145.965
BUGSAT 1 20 Apr 11:06:11 11:07:16 11° 70° (ENE) 11:08:37 437.445
ANTELSAT 20 Apr 11:08:07 11:12:19 45° 75° (ENE) 11:16:40 437.575/2403.000
DX 1 20 Apr 11:10:07 11:13:40 25° 96° (E) 11:17:18 434.975-435.025
COMPASS 1 20 Apr 11:14:22 11:18:00 27° 287° (WNW) 11:21:31 437.405
HUMSAT D 20 Apr 11:18:04 11:21:33 24° 95° (E) 11:25:05 437.325/437.525
QB50P2 20 Apr 11:18:36 11:22:06 27° 73° (ENE) 11:25:42 145.880/145.840
UWE-3 20 Apr 11:19:34 11:24:16 77° 102° (ESE) 11:28:57 435.000/436.395/437.385
CANX-2 20 Apr 11:30:09 11:31:45 12° 290° (WNW) 11:33:05 2200.000
SEEDS 20 Apr 11:31:17 11:33:44 15° 289° (WNW) 11:36:00 437.485
Cosmos 2491 20 Apr 11:31:56 11:40:46 73° 83° (E) 11:49:35 435.465 / 435.565
O/OREOS (USA 219) 20 Apr 11:35:32 11:38:54 20° 258° (WSW) 11:42:08 437.305
CINEMA 3 20 Apr 11:37:06 11:41:24 30° 287° (WNW) 11:45:41 145.822/145.860
NANOSAT C BR1 20 Apr 11:40:32 11:44:34 49° 75° (ENE) 11:48:39 145.865
POPSAT HIP 1 20 Apr 11:40:53 11:44:55 50° 75° (ENE) 11:49:01 437.405
SRMSAT 20 Apr 11:44:18 11:46:42 12° 198° (SSW) 11:48:59 437.500
FUNcube-1 20 Apr 11:45:41 11:50:16 68° 283° (WNW) 11:54:49 145.935
HO-68 20 Apr 11:46:33 11:52:05 24° 295° (WNW) 11:57:20 435.675
DOVE 4 20 Apr 11:46:36 11:49:07 13° 290° (WNW) 11:51:22 437.250
VELOX 1 20 Apr 11:52:39 11:56:40 34° 98° (E) 12:00:44 145.980
50 SAT 20 Apr 11:54:03 11:57:50 38° 98° (E) 12:01:37 437.505
UKube-1 20 Apr 12:01:18 12:05:38 78° 283° (WNW) 12:09:57 .
TIGRISAT 20 Apr 12:01:35 12:05:43 40° 262° (W) 12:09:57 435.000
UNISAT 6 20 Apr 12:03:07 12:07:12 37° 262° (W) 12:11:23 437.425
POLYITAN 1 20 Apr 12:07:36 12:11:47 70° 259° (WSW) 12:16:00 437.675
AISAT 20 Apr 12:07:46 12:12:08 55° 100° (E) 12:16:31 437.250
ZACube-1 20 Apr 12:08:51 12:13:04 35° 286° (WNW) 12:17:14 437.345
CUBEBUG 1 20 Apr 12:16:07 12:19:52 28° 97° (E) 12:23:40 437.445
DUCHIFAT 1 20 Apr 12:16:22 12:20:27 55° 260° (W) 12:24:35 145.980
DELFI C3 20 Apr 12:17:41 12:20:21 17° 288° (WNW) 12:22:51 145.870
CUBEBUG 2 20 Apr 12:17:58 12:21:27 20° 289° (WNW) 12:24:47 437.445
Oscar 11 20 Apr 12:24:44 12:26:36 12° 290° (WNW) 12:28:12 145.826/435.025
ESTCUBE 1 20 Apr 12:25:34 12:29:50 43° 99° (E) 12:34:06 437.505/2401.250
QB50P1 20 Apr 12:30:08 12:34:00 35° 262° (W) 12:37:52 145.935-145.965
YUBILEINY 20 Apr 12:32:25 12:41:16 86° 276° (W) 12:50:09 435.215
BUGSAT 1 20 Apr 12:38:38 12:42:27 40° 261° (W) 12:46:15 437.445
DX 1 20 Apr 12:46:28 12:49:49 21° 289° (WNW) 12:53:02 434.975-435.025
ANTELSAT 20 Apr 12:47:42 12:49:27 12° 269° (W) 12:50:53 437.575/2403.000
HUMSAT D 20 Apr 12:53:49 12:57:12 22° 288° (WNW) 13:00:27 437.325/437.525
QB50P2 20 Apr 12:55:06 12:58:02 18° 266° (W) 13:00:51 145.880/145.840
ISS 20 Apr 13:05:07 13:06:23 12° 127° (SE) 13:07:47 145.825
Cosmos 2504 20 Apr 13:16:44 13:20:08 13° 82° (E) 13:24:22 435.465 / 435.565
VELOX 1 20 Apr 13:30:10 13:33:00 16° 290° (WNW) 13:35:39 145.980
50 SAT 20 Apr 13:30:42 13:32:22 12° 290° (WNW) 13:33:48 437.505
Cosmos 2491 20 Apr 13:31:09 13:36:54 18° 276° (W) 13:42:04 435.465 / 435.565
Oscar 19 20 Apr 13:33:29 13:37:39 26° 71° (ENE) 13:41:57 437.125/150
AIST 1 20 Apr 13:33:43 13:37:58 78° 83° (E) 13:42:14
SO-50 20 Apr 13:42:17 13:46:51 80° 298° (WNW) 13:51:37 436.795
AISAT 20 Apr 13:47:27 13:48:20 10° 292° (WNW) 13:48:54 437.250
TISAT 1 20 Apr 13:52:16 13:56:32 81° 101° (ESE) 14:00:47 437.305
CUBEBUG 1 20 Apr 13:52:59 13:56:03 19° 289° (WNW) 13:59:00 437.445
ITAMSAT 1 20 Apr 13:57:12 13:59:11 13° 67° (ENE) 14:01:30 435.822/435.867
SPROUT 20 Apr 13:59:52 14:04:09 62° 284° (WNW) 14:08:24 437.525
BEESAT 2 20 Apr 14:00:39 14:04:11 28° 56° (ENE) 14:07:42 435.950
ESTCUBE 1 20 Apr 14:04:10 14:06:22 13° 291° (WNW) 14:08:21 437.505/2401.250
BEESAT 3 20 Apr 14:06:47 14:10:38 39° 59° (ENE) 14:14:26 437.485
ITUPSAT 1 20 Apr 14:20:13 14:23:39 20° 95° (E) 14:27:14 437.325
AIST 2 20 Apr 14:25:01 14:27:40 17° 52° (NE) 14:30:27 435.215
YUBILEINY 20 Apr 14:35:32 14:39:35 13° 295° (WNW) 14:42:51 435.215
ISS 20 Apr 14:39:25 14:42:30 39° 318° (NW) 14:45:35 145.825
BEESAT 20 Apr 14:53:59 14:58:37 52° 100° (E) 15:03:15 436.000
SWISSCUBE 20 Apr 14:55:25 15:00:07 59° 101° (E) 15:04:48 437.505
Cosmos 2504 20 Apr 15:03:49 15:12:35 88° 93° (E) 15:21:32 435.465 / 435.565
Oscar 19 20 Apr 15:12:32 15:16:56 28° 264° (W) 15:21:15 437.125/150
RS-15 20 Apr 15:15:44 15:25:55 49° 110° (ESE) 15:36:18 29.354- 29.394
Gurwin Techsat 1B 20 Apr 15:28:04 15:33:23 85° 257° (WSW) 15:38:44 435.225
ITAMSAT 1 20 Apr 15:33:07 15:38:15 62° 259° (W) 15:43:23 435.822/435.867
BEESAT 2 20 Apr 15:39:16 15:42:07 18° 250° (WSW) 15:44:49 435.950
BEESAT 3 20 Apr 15:46:39 15:48:19 12° 251° (WSW) 15:49:45 437.485
ITUPSAT 1 20 Apr 15:57:24 16:01:35 30° 288° (WNW) 16:05:41 437.325
STARS 20 Apr 15:57:56 16:01:37 26° 96° (E) 16:05:21 437.465
JAS-2 20 Apr 15:59:32 16:06:10 33° 69° (ENE) 16:13:01 435.910
HORYU 2 20 Apr 16:01:07 16:05:13 37° 74° (ENE) 16:09:23 437.375
AIST 2 20 Apr 16:02:34 16:06:24 34° 247° (WSW) 16:10:08 435.215
AO-7 20 Apr 16:22:02 16:30:01 56° 69° (ENE) 16:38:05 29.400- 29.500
KKS-1 20 Apr 16:24:47 16:29:18 86° 280° (W) 16:33:46 437.445
BEESAT 20 Apr 16:33:54 16:36:05 13° 292° (WNW) 16:37:58 436.000
SWISSCUBE 20 Apr 16:36:06 16:37:32 11° 292° (WNW) 16:38:39 437.505
GONETS M04 20 Apr 16:56:07 17:02:58 28° 87° (E) 17:10:11
Cosmos 2504 20 Apr 17:02:03 17:07:16 16° 294° (WNW) 17:11:49 435.465 / 435.565
RS-15 20 Apr 17:28:23 17:38:29 40° 309° (NW) 17:48:35 29.354- 29.394
STARS 20 Apr 17:34:32 17:37:57 21° 289° (WNW) 17:41:15 437.465
HORYU 2 20 Apr 17:39:28 17:42:03 14° 267° (W) 17:44:24 437.375
JAS-2 20 Apr 17:43:38 17:50:57 45° 263° (W) 17:58:20 435.910
CUTE-I 20 Apr 17:44:57 17:45:00 10° 66° (ENE) 17:45:28 437.470
MOZHAYETS 4 20 Apr 17:46:12 17:50:31 41° 98° (E) 17:54:50
Cubesat XI-IV 20 Apr 17:50:45 17:52:46 13° 67° (ENE) 17:55:08 437.490
AO-7 20 Apr 18:16:30 18:23:13 26° 264° (W) 18:29:37 29.400- 29.500
VERMONT LUNAR 20 Apr 18:49:49 18:53:07 53° 148° (SSE) 18:56:26 437.305
GONETS M04 20 Apr 18:51:01 18:59:27 50° 281° (WNW) 19:07:53
CUSAT 1 20 Apr 18:51:53 18:54:44 86° 276° (W) 18:58:18 437.405
DANDE 20 Apr 18:54:02 18:56:41 57° 96° (E) 18:59:54 436.750
AUBIESAT-1 20 Apr 18:55:32 18:58:02 16° 96° (E) 19:00:35 437.475
CUBESAT XI-V 20 Apr 19:07:07 19:10:32 21° 95° (E) 19:14:05 437.345
CUTE-I 20 Apr 19:19:12 19:24:32 79° 257° (WSW) 19:29:53 437.470
MOZHAYETS 4 20 Apr 19:24:50 19:27:27 15° 290° (WNW) 19:29:49
PCSat 20 Apr 19:25:50 19:30:39 33° 58° (ENE) 19:35:31 145.827
Cubesat XI-IV 20 Apr 19:27:06 19:32:25 65° 259° (WSW) 19:37:43 437.490
M-CUBED/EXP-1 PRIME 20 Apr 19:41:03 19:45:21 79° 106° (ESE) 19:49:15 437.505
Cosmos 2499 20 Apr 19:42:41 19:51:19 64° 92° (E) 20:00:01 435.465 / 435.565
PHONESAT 2.4 20 Apr 19:58:51 20:02:24 68° 149° (SSE) 20:05:59 2401.200-2431.200
